When you browse on this site, cookies collect data to enhance your experience and personalize the content and advertising you see.
Visit our Privacy Policy to learn more. By continuing to use the site, you agree to this use of cookies and data.
  • In Österreich
  • Länderverzeichnis
  • Für 7 Tage
  • Wassertemperatur
  • Wetterkarte
  • News
  • Widgets
  • user-avatar
    Anmelden

    Stündliche Wetter Nachiczewan

    Heute, 15 September, Sonntag

    Zeit Temperatur Niederschläge Wind Luftdruck Luftfeuchtigkeit
    00:00 +20°C° 0 mm 2 m/S 690 mmHg 47%
    01:00 +20°C° 0 mm 2 m/S 690 mmHg 48%
    02:00 +20°C° 0 mm 1 m/S 689 mmHg 49%
    03:00 +20°C° 0 mm 1 m/S 689 mmHg 51%
    04:00 +20°C° 0 mm 1 m/S 689 mmHg 52%
    05:00 +20°C° 0 mm 1 m/S 689 mmHg 52%
    06:00 +19°C° 0 mm 1 m/S 690 mmHg 53%
    07:00 +21°C° 0 mm 1 m/S 690 mmHg 48%
    08:00 +22°C° 0 mm 1 m/S 690 mmHg 43%
    09:00 +24°C° 0 mm 1 m/S 690 mmHg 38%
    10:00 +25°C° 0 mm 1 m/S 690 mmHg 36%
    11:00 +26°C° 0 mm 1 m/S 690 mmHg 33%
    12:00 +28°C° 0 mm 1 m/S 689 mmHg 30%
    13:00 +28°C° 0 mm 1 m/S 689 mmHg 28%
    14:00 +29°C° 0 mm 1 m/S 689 mmHg 26%
    15:00 +30°C° 0 mm 1 m/S 689 mmHg 25%
    16:00 +30°C° 0 mm 1 m/S 689 mmHg 28%
    17:00 +29°C° 0 mm 2 m/S 689 mmHg 31%
    18:00 +28°C° 0 mm 2 m/S 689 mmHg 35%
    19:00 +27°C° 0 mm 2 m/S 690 mmHg 39%
    20:00 +26°C° 0 mm 3 m/S 690 mmHg 44%
    21:00 +25°C° 0 mm 3 m/S 690 mmHg 49%
    22:00 +24°C° 0.1 mm 3 m/S 690 mmHg 51%
    23:00 +24°C° 0.1 mm 2 m/S 690 mmHg 54%

    Morgen, 16 September, Montag

    Zeit Temperatur Niederschläge Wind Luftdruck Luftfeuchtigkeit
    00:00 +23°C° 0.1 mm 1 m/S 690 mmHg 57%
    01:00 +22°C° 0 mm 1 m/S 690 mmHg 58%
    02:00 +22°C° 0 mm 1 m/S 690 mmHg 60%
    03:00 +21°C° 0 mm 1 m/S 690 mmHg 61%
    04:00 +21°C° 0 mm 1 m/S 689 mmHg 62%
    05:00 +21°C° 0 mm 1 m/S 689 mmHg 64%
    06:00 +20°C° 0 mm 1 m/S 689 mmHg 65%
    07:00 +21°C° 0 mm 1 m/S 689 mmHg 59%
    08:00 +22°C° 0 mm 1 m/S 689 mmHg 54%
    09:00 +23°C° 0 mm 1 m/S 689 mmHg 48%
    10:00 +25°C° 0 mm 2 m/S 689 mmHg 44%
    11:00 +27°C° 0 mm 2 m/S 689 mmHg 39%
    12:00 +28°C° 0 mm 2 m/S 688 mmHg 34%
    13:00 +30°C° 0 mm 3 m/S 688 mmHg 31%
    14:00 +31°C° 0 mm 3 m/S 688 mmHg 28%
    15:00 +33°C° 0 mm 3 m/S 688 mmHg 25%
    16:00 +33°C° 0 mm 3 m/S 688 mmHg 26%
    17:00 +31°C° 0 mm 2 m/S 688 mmHg 27%
    18:00 +30°C° 0 mm 2 m/S 687 mmHg 29%
    19:00 +29°C° 0 mm 1 m/S 688 mmHg 32%
    20:00 +28°C° 0 mm 1 m/S 688 mmHg 34%
    21:00 +25°C° 0 mm 0 m/S 688 mmHg 37%
    22:00 +27°C° 0 mm 1 m/S 688 mmHg 38%
    23:00 +26°C° 0 mm 1 m/S 688 mmHg 39%

    übermorgen, 17 September, Dienstag

    Zeit Temperatur Niederschläge Wind Luftdruck Luftfeuchtigkeit
    00:00 +25°C° 0 mm 1 m/S 688 mmHg 40%
    01:00 +25°C° 0 mm 1 m/S 687 mmHg 41%
    02:00 +24°C° 0 mm 1 m/S 687 mmHg 42%
    03:00 +24°C° 0 mm 1 m/S 687 mmHg 43%
    04:00 +23°C° 0 mm 1 m/S 686 mmHg 44%
    05:00 +23°C° 0 mm 1 m/S 686 mmHg 45%
    06:00 +22°C° 0 mm 1 m/S 686 mmHg 46%
    07:00 +22°C° 0 mm 0 m/S 686 mmHg 41%
    08:00 +24°C° 0 mm 0 m/S 687 mmHg 36%
    09:00 +26°C° 0 mm 0 m/S 687 mmHg 30%
    10:00 +29°C° 0 mm 1 m/S 687 mmHg 26%
    11:00 +31°C° 0 mm 2 m/S 687 mmHg 22%
    12:00 +34°C° 0 mm 2 m/S 687 mmHg 19%
    13:00 +34°C° 0 mm 3 m/S 686 mmHg 17%
    14:00 +35°C° 0 mm 3 m/S 686 mmHg 15%
    15:00 +36°C° 0 mm 3 m/S 686 mmHg 14%
    16:00 +35°C° 0 mm 3 m/S 685 mmHg 15%
    17:00 +33°C° 0 mm 3 m/S 685 mmHg 17%
    18:00 +31°C° 0 mm 3 m/S 685 mmHg 18%
    19:00 +30°C° 0 mm 3 m/S 685 mmHg 21%
    20:00 +29°C° 0 mm 3 m/S 686 mmHg 23%
    21:00 +28°C° 0 mm 3 m/S 687 mmHg 25%
    22:00 +27°C° 0 mm 4 m/S 687 mmHg 28%
    23:00 +26°C° 0 mm 4 m/S 687 mmHg 31%

    18 September, Mittwoch

    Zeit Temperatur Niederschläge Wind Luftdruck Luftfeuchtigkeit
    00:00 +26°C° 0 mm 4 m/S 687 mmHg 34%
    01:00 +25°C° 0 mm 3 m/S 687 mmHg 36%
    02:00 +24°C° 0 mm 2 m/S 687 mmHg 39%
    03:00 +23°C° 0 mm 2 m/S 687 mmHg 42%
    04:00 +23°C° 0 mm 1 m/S 687 mmHg 43%
    05:00 +22°C° 0 mm 1 m/S 688 mmHg 45%
    06:00 +22°C° 0 mm 1 m/S 688 mmHg 47%
    07:00 +23°C° 0 mm 1 m/S 688 mmHg 42%
    08:00 +25°C° 0 mm 1 m/S 689 mmHg 37%
    09:00 +26°C° 0 mm 1 m/S 690 mmHg 33%
    10:00 +27°C° 0 mm 1 m/S 690 mmHg 31%
    11:00 +28°C° 0 mm 1 m/S 690 mmHg 28%
    12:00 +29°C° 0 mm 1 m/S 690 mmHg 26%
    13:00 +30°C° 0 mm 1 m/S 689 mmHg 24%
    14:00 +31°C° 0 mm 1 m/S 689 mmHg 22%
    15:00 +31°C° 0 mm 1 m/S 689 mmHg 20%
    16:00 +31°C° 0 mm 1 m/S 689 mmHg 22%
    17:00 +30°C° 0 mm 1 m/S 689 mmHg 23%
    18:00 +30°C° 0 mm 1 m/S 689 mmHg 25%
    19:00 +29°C° 0 mm 1 m/S 689 mmHg 26%
    20:00 +28°C° 0 mm 1 m/S 689 mmHg 28%
    21:00 +27°C° 0 mm 1 m/S 690 mmHg 29%
    22:00 +26°C° 0 mm 1 m/S 689 mmHg 32%
    23:00 +26°C° 0 mm 1 m/S 689 mmHg 34%

    19 September, Donnerstag

    Zeit Temperatur Niederschläge Wind Luftdruck Luftfeuchtigkeit
    00:00 +25°C° 0 mm 1 m/S 689 mmHg 37%
    01:00 +24°C° 0 mm 1 m/S 689 mmHg 39%
    02:00 +24°C° 0 mm 1 m/S 689 mmHg 40%
    03:00 +23°C° 0 mm 1 m/S 688 mmHg 42%
    04:00 +23°C° 0 mm 1 m/S 688 mmHg 43%
    05:00 +22°C° 0 mm 1 m/S 688 mmHg 44%
    06:00 +20°C° 0 mm 0 m/S 688 mmHg 46%
    07:00 +22°C° 0 mm 0 m/S 688 mmHg 40%
    08:00 +26°C° 0 mm 1 m/S 689 mmHg 35%
    09:00 +27°C° 0 mm 1 m/S 689 mmHg 29%
    10:00 +29°C° 0 mm 1 m/S 689 mmHg 27%
    11:00 +30°C° 0 mm 1 m/S 689 mmHg 24%
    12:00 +31°C° 0 mm 1 m/S 689 mmHg 21%
    13:00 +32°C° 0 mm 1 m/S 689 mmHg 19%
    14:00 +33°C° 0 mm 1 m/S 688 mmHg 17%
    15:00 +34°C° 0 mm 2 m/S 688 mmHg 15%
    16:00 +32°C° 0 mm 1 m/S 688 mmHg 17%
    17:00 +32°C° 0 mm 1 m/S 688 mmHg 18%
    18:00 +31°C° 0 mm 1 m/S 688 mmHg 20%
    19:00 +30°C° 0 mm 1 m/S 688 mmHg 23%
    20:00 +29°C° 0 mm 1 m/S 688 mmHg 26%
    21:00 +28°C° 0 mm 2 m/S 688 mmHg 29%
    22:00 +27°C° 0 mm 2 m/S 688 mmHg 33%
    23:00 +26°C° 0 mm 2 m/S 688 mmHg 36%

    20 September, Freitag

    Zeit Temperatur Niederschläge Wind Luftdruck Luftfeuchtigkeit
    00:00 +25°C° 0 mm 2 m/S 687 mmHg 39%
    01:00 +25°C° 0 mm 1 m/S 687 mmHg 41%
    02:00 +24°C° 0 mm 1 m/S 687 mmHg 42%
    03:00 +23°C° 0 mm 1 m/S 686 mmHg 43%
    04:00 +23°C° 0 mm 1 m/S 686 mmHg 44%
    05:00 +23°C° 0 mm 1 m/S 686 mmHg 45%
    06:00 +20°C° 0 mm 0 m/S 686 mmHg 46%
    07:00 +22°C° 0 mm 0 m/S 686 mmHg 40%
    08:00 +24°C° 0 mm 0 m/S 686 mmHg 35%
    09:00 +26°C° 0 mm 0 m/S 687 mmHg 30%
    10:00 +28°C° 0 mm 0 m/S 687 mmHg 26%
    11:00 +29°C° 0 mm 0 m/S 686 mmHg 23%
    12:00 +32°C° 0 mm 1 m/S 686 mmHg 20%
    13:00 +33°C° 0 mm 1 m/S 686 mmHg 17%
    14:00 +35°C° 0 mm 2 m/S 685 mmHg 15%
    15:00 +36°C° 0 mm 2 m/S 685 mmHg 13%
    16:00 +35°C° 0 mm 2 m/S 685 mmHg 14%
    17:00 +33°C° 0 mm 1 m/S 684 mmHg 15%
    18:00 +32°C° 0 mm 1 m/S 684 mmHg 17%
    19:00 +31°C° 0 mm 1 m/S 684 mmHg 18%
    20:00 +30°C° 0 mm 1 m/S 684 mmHg 20%
    21:00 +29°C° 0 mm 1 m/S 684 mmHg 22%
    22:00 +28°C° 0 mm 1 m/S 684 mmHg 24%
    23:00 +28°C° 0 mm 1 m/S 684 mmHg 25%
    Mehr zeigen